Regional Weather Roundup
Issued by NWS Portland, ME

Home | Current Version | Previous Version | Text Only | Print | Product List | Glossary On
Versions: 1 2 3 4 5 6 7 8 9 10 11 12 13 14 15 16 17 18 19 20 21 22 23 24 25 26 27 28 29 30 31 32 33 34 35 36 37 38 39 40 41 42 43 44 45 46 47 48 49 50
000
ASUS41 KGYX 301405
RWRGYX
WEATHER ROUNDUP FOR MAINE AND NEW HAMPSHIRE
NATIONAL WEATHER SERVICE GRAY ME
1000 AM EDT SAT AUG 30 2014

MEZ002-005-006-010-012-015-018-020-021-024-026-027-029-301500-
MAINE

CITY           SKY/WX    TMP DP  RH WIND       PRES   REMARKS
PORTLAND       CLOUDY    66  57  72 SW12      30.27F
SANFORD        MOSUNNY   66  55  68 SW9       30.29S
BAR HARBOR     MOSUNNY   64  57  77 S15G21    30.28S
WISCASSET      PTSUNNY   67  59  75 S9G17     30.29S
ROCKLAND       PTSUNNY   66  55  68 S9        30.27S
FRYEBURG       MOSUNNY   69  57  65 VRB3      30.25S
LEWISTONAUBURN MOSUNNY   64  55  72 S7        30.27S
AUGUSTA        PTSUNNY   65  57  75 S9        30.26F
WATERVILLE     MOSUNNY   64  57  77 S6        30.21F
BANGOR         PTSUNNY   67  50  54 S15       30.25F
GREENVILLE       N/A     63  55  75 S6        30.20S
MILLINOCKET    MOSUNNY   65  53  65 VRB6G18   30.21F
HOULTON        MOSUNNY   65  53  65 SW8       30.19F
PRESQUE ISLE   MOSUNNY   64  52  63 S8        30.16S
FRENCHVILLE    PTSUNNY   59  50  72 S8        30.13F
CARIBOU        MOSUNNY   64  50  60 S7        30.15F
$$

NHZ002-005-008-009-011-012-014-301500-
NEW HAMPSHIRE

CITY           SKY/WX    TMP DP  RH WIND       PRES   REMARKS
PORTSMOUTH     PTSUNNY   68  59  71 SW10      30.27F
ROCHESTER      PTSUNNY   64  57  78 VRB7      30.28S
NASHUA         MOSUNNY   68  58  70 VRB5      30.29S
MANCHESTER     PTSUNNY   66  57  72 SW6       30.27S
CONCORD        MOSUNNY   64  57  78 VRB3      30.27F
LACONIA        SUNNY     64  54  68 SW9       30.25S
PLYMOUTH       FAIR      64  60  87 E3        30.25F
BERLIN         MOSUNNY   66  55  67 CALM      30.23F
WHITEFIELD     SUNNY     70  55  59 VRB6      30.22F
JAFFREY        PTSUNNY   62  57  83 W5        30.30S
LEBANON        SUNNY     68  54  60 S10       30.23F
MT WASHINGTON  FOG       45  45 100 SW24G38     N/A  VSB 0
$$

VTZ005-007-008-301500-
VERMONT

CITY           SKY/WX    TMP DP  RH WIND       PRES   REMARKS
ST JOHNSBURY     N/A     64  55  72 MISG      30.20F
MONTPELIER     MOSUNNY   63  54  72 S9        30.25S
BURLINGTON     MOSUNNY   69  55  60 S17G29    30.17S
$$

MAZ007-012-024-CTZ003-RIZ002-NYZ038-NYZ072-301500-
SOUTHERN NEW ENGLAND AND NY

CITY           SKY/WX    TMP DP  RH WIND       PRES   REMARKS
BOSTON         MOSUNNY   68  57  68 S8        30.30S
WORCESTER      MOSUNNY   64  55  72 SW13      30.30F
NANTUCKET      SUNNY     65  52  62 S10       30.32F
PROVIDENCE     MOSUNNY   69  57  65 SE12      30.31F
HARTFORD       PTSUNNY   71  58  63 VRB6      30.27F
ALBANY         MOSUNNY   69  56  62 S14G20    30.24S
NEW YORK CITY  PTSUNNY   73  56  54 S6        30.26S
$$

ANZ081-ANZ082-ANZ150-NHZ014-MEZ023>029-301500-
COASTAL MARINE OBSERVATIONS

STATION/POSITION TIME  TEMP    WIND        PRES    WAVE
                       AIR SEA DIR/SP/G            HT/PER
                 (UTC) (F)     (DEG/KT/KT) (MB)    (FT/S)
MATINICUS ROCK   1300          200/ 11/ 11 1025.3F
PORTLAND WX BUOY 1350   62 62  210/ 12/ 14 1025.3S   3/ 9
WELLS            1300   64 61  230/  6/ 11 1024.7F
ISLE OF SHOALS   1300   62     200/ 15/ 16 1025.1F
JEFFREYS LEDGE   1321      65                N/A     3/ 9
CASHES LEDGE BUO 1350   64 65              1025.8F   3/ 8
$$

.............KEY..............
   WCI - WIND CHILL
   TC  - TEMPERATURE IN CELSIUS
   VSB - VISIBILITY IN MILES
   HX  - HEAT INDEX
   FAIR- INDICATES FEW OR NO CLOUDS BELOW 12,000 FT, WITH NO
         SIGNIFICANT WEATHER AND/OR OBSTRUCTIONS TO VISIBILITY.




USA.gov is the U.S. government's official web portal to all federal, state and local government web resources and services.